Flag for U.S.A. Weather past 2 weeks in Lakewood, Colorado, U.S.A.

Now
35 °F

Partly sunny.


Feels Like: 30 °F
Forecast: 29 / 42 °F
Wind: 6 mph from North

Location: Centennial Airport

Current Time: Jan 31, 2015 at 12:15:17 PM

Latest Report: Jan 31, 2015 at 10:53 AM


Visibility: 10 mi

Pressure: 29.91 "Hg

Humidity: 70%

Dew point: 26 °F

Location of LakewoodLocation

Historic Weather in Lakewood — Graph

°F

Lakewood temperature yesterday

Maximum temperature yesterday: 47 °F (at 1:53 PM)
Minimum temperature yesterday: 33 °F (at 7:53 AM)
Average temperature yesterday: 39 °F

Past Weeks' High & Low Weather Summary

 TemperatureHumidityPressure
High72 °F (Jan 27, 1:53 PM)100% (Jan 20, 3:01 AM)30.58 "Hg (Jan 20, 3:01 AM)
Low7 °F (Jan 22, 3:53 AM)11% (Jan 17, 1:53 PM)29.82 "Hg (Jan 16, 3:53 PM)
Average39 °F51%30.16 "Hg
* Reported Jan 16 10:53 AM — Jan 31 10:53 AM, Lakewood, Weather by CustomWeather, © 2014

Note: Actual official high and low records may vary slightly from our data, if they occured in-between our weather recording intervals... More about our weather records

Advertising

Lakewood weather history for previous 24 hours

 ConditionsComfort  
Time TempWeatherWind HumidityBarometerVisibility
10:53 AM
Jan 31
35 °FPartly sunny.6 mph70%29.91 "Hg10 mi
9:53 AM33 °FPartly sunny.6 mph72%29.93 "Hg10 mi
8:53 AM32 °FPartly sunny.No wind75%29.91 "Hg10 mi
7:53 AM31 °FPartly sunny.3 mph76%29.94 "Hg10 mi
6:53 AM29 °FPartly cloudy.No wind79%29.93 "Hg10 mi
5:53 AM32 °FPartly cloudy.3 mph69%29.92 "Hg10 mi
4:53 AM34 °FMostly cloudy.No wind67%29.93 "Hg10 mi
3:53 AM33 °FMostly cloudy.6 mph70%29.94 "Hg10 mi
2:53 AM35 °FMostly cloudy.3 mph64%29.95 "Hg10 mi
1:53 AM36 °FMostly cloudy.3 mph62%29.96 "Hg10 mi
12:53 AM35 °FMostly cloudy.5 mph70%29.99 "Hg10 mi
11:53 PM
Jan 30
36 °FMostly cloudy.7 mph70%30.03 "Hg10 mi
10:53 PM36 °FPassing clouds.6 mph70%30.06 "Hg10 mi
9:53 PM38 °FPassing clouds.5 mph63%30.09 "Hg10 mi
8:53 PM40 °FMostly cloudy.5 mph55%30.09 "Hg10 mi
7:53 PM40 °FOvercast.5 mph58%30.12 "Hg10 mi
6:53 PM41 °FOvercast.8 mph55%30.11 "Hg10 mi
5:53 PM42 °FOvercast.9 mph53%30.10 "Hg10 mi
4:53 PM44 °FMostly cloudy.9 mph47%30.09 "Hg10 mi
3:53 PM45 °FCloudy.7 mph45%30.09 "Hg10 mi
2:53 PM46 °FMostly cloudy.7 mph42%30.08 "Hg10 mi
1:53 PM47 °FMostly cloudy.8 mph42%30.08 "Hg10 mi
12:53 PM46 °FMostly cloudy.7 mph46%30.11 "Hg10 mi
Weather by CustomWeather, © 2014

See weather overviewHow to use our weather pages